DELTA 1 DEB, 12274

Orbit data source: Space-Track

DELTA 1 DEB, 12274 is space debris in SSO originally from a launch on Thu, 29 Jul 1976 UTC launched from the Air Force Western Test Range (AFWTR). Debris objects in space refer to the collection of defunct objects orbiting the Earth. Examples of debris include non-operational satellites, rocket bodies, and fragments generated from explosions, collisions, or faulty payload assembly.

Loading next visibility...
Identifier
12274, 1976-077DF
Orbit
SSO
Country
Flag of USUS
Related business
Manufacturer
Unknown
Mission
Spacecraft
Bus & Motor
Unknown
Mass
Unknown
Launch date (UTC)
1976-07-29 (49 years ago)
Launch vehicle
Unknown
Launch site
Air Force Western Test Range (AFWTR)
Object type
Payload
Rocket body
Debris
Shape & HBR
Unknown shape, 0.1 m
Radar Cross Section
Small (<0.1 m²)

Expand to show TLE details & history
Last TLE update: 13 hours ago

TLE from 13 hours ago
0 DELTA 1 DEB
1 12274U 76077DF  25352.82343715 -.00000027  00000-0  16430-3 0  9990
2 12274 102.3642 314.9179 0106624 335.0683  53.7875 12.22287301  1900
Epoch: 2025-12-18T19:45Z
TLE epoch observation values (Epoch: 2025-12-18T19:45:44.969Z)
Latitude
29.13554°
Longitude
-76.17691°
Altitude
1,536.312 km
Speed
7.123 km/s
True Right ascension
20h 31m 44s
True Declination
29° 00' 14"
Sunlit
Object was in daylight at epoch
Visualization orbit readout
Latitude
Unknown
Longitude
Unknown
Altitude
Unknown
Speed
Unknown
Apparent Right ascension
Unknown
Apparent Declination
Unknown
Sunlit
N/A
Visualization observer readout
Local Sidereal Time
07:45:40
Azimuth
Unknown
Elevation
Unknown
Doppler factor
Unknown
Orbital elements
Apogee altitude
1,665.069 km
Perigee altitude
1,495.359 km
Semi-major axis
7,958.351 km
Eccentricity
0.01066
Inclination
102.3642°
RAAN
314.9179°
Arg. of periapsis
335.0683°
True anomaly
54.78108°
Mean anomaly
53.7875°
Eccentric anomaly
54.28351°
Mean motion
3.05709 °/min
Orbital period
117.76 mins
BSTAR
0.0001643
Loading maneuver chart data...
Computing Atmospheric mass density...
Loading historical data...
Loading historical data...
Loading historical data...
Loading historical data...
Loading historical data...
Loading historical data...
Loading historical data...

Documentation

Showing up to 5 results
|